Regional Weather Roundup
Issued by NWS

Home | Current Version | Previous Version | Text Only | Print | Product List | Glossary On
Versions: 1 2 3 4 5 6 7 8 9 10 11 12 13 14 15 16 17 18 19 20 21 22 23 24 25 26 27 28 29 30 31 32 33 34 35 36 37 38 39 40 41 42 43 44 45 46 47 48 49 50
471
ASUS44 KJAN 020303
RWRMS

MISSISSIPPI HOURLY WEATHER ROUNDUP
NATIONAL WEATHER SERVICE JACKSON MS
1000 PM CDT SUN MAY 01 2016

NOTE: "FAIR: INDICATES FEW OR NO CLOUDS BELOW 12,000 FEET WITH NO
SIGNIFICANT WEATHER AND/OR OBSTRUCTIONS TO VISIBILITY.

MSZ001>002-007>008-010>013-018>021-025>028-034>036-020400-
NORTHWEST MISSISSIPPI

CITY           SKY/WX    TMP DP  RH WIND       PRES   REMARKS
BATESVILLE     FAIR      72  67  83 SE5       29.97S
CLEVELAND      MOCLDY    75  74  95 CALM      29.94R
GREENWOOD      PTCLDY    72  67  84 CALM      29.94R
GREENVILLE     MOCLDY    76  69  79 CALM      29.95R
OLIVE BRANCH   PTCLDY    68  66  94 CALM      29.97R
OXFORD         FAIR      70  66  88 SE8       29.99R
TUNICA         MOCLDY    72  66  83 CALM      29.97R
WINONA         FAIR      70  69  96 CALM      29.96R
$$

MSZ003>006-009-014>017-022>024-029>033-037>039-020400-
NORTHEAST MISSISSIPPI

CITY           SKY/WX    TMP DP  RH WIND       PRES   REMARKS
COLUMBUS AFB   NOT AVBL
CORINTH        FAIR      70  64  83 S6        29.98R
GOLDN TRIANGLE CLOUDY    70  64  83 SE10      29.99R
STARKVILLE     FAIR      68  64  88 CALM      29.98R FOG
TUPELO         CLEAR     70  64  81 SE6       29.99R
$$

MSZ040-058-020400-
CENTRAL MISSISSIPPI

CITY           SKY/WX    TMP DP  RH WIND       PRES   REMARKS
JACKSON INTL   PTCLDY    68  64  87 SE6       29.95R
JACKSON HAWKNS PTCLDY    69  65  86 SE7       29.95S
MADISON        FAIR      68  64  88 CALM      29.95R
MERIDIAN KEY   PTCLDY    69  67  93 E6        29.99R
MERIDIAN NAS   CLOUDY    69  67  93 SE7       30.00R
VICKSBURG TVR  CLOUDY    73  68  84 SE9       29.94R
VICKSBURG VKS  CLEAR     72  68  88 CALM      29.94R
$$

MSZ059>079-020400-
SOUTH MISSISSIPPI

CITY           SKY/WX    TMP DP  RH WIND       PRES   REMARKS
BROOKHAVEN     FAIR     N/A N/A N/A CALM      29.96R
COLUMBIA       FAIR      66  64  94 CALM      29.99R
HATTIESBURG    CLOUDY    68  65  90 CALM      29.96R
MCCOMB         CLOUDY    66  66 100 SE3       29.95R
NATCHEZ        CLOUDY    68  64  88 CALM      29.95R
PINE BELT      CLOUDY    66  63  88 CALM      29.98R
$$

MSZ080>082-020400-
COASTAL MISSISSIPPI

CITY           SKY/WX    TMP DP  RH WIND       PRES   REMARKS
BILOXI         CLOUDY    73  67  80 E7        29.94R
PASCAGOULA     CLOUDY    76  72  87 VRB5      29.97R
GULFPORT       CLOUDY    73  62  68 CALM      29.94R
$$




USA.gov is the U.S. government's official web portal to all federal, state and local government web resources and services.